Flag for U.S.A. Weather past 2 weeks in Lexington, Virginia, U.S.A.

Now
67 °F

Cloudy.


Feels Like: 67 °F
Forecast: 67 / 81 °F
Wind: 10 mph from West

Location: Hot Springs / Ingalls

Current Time: Jul 4, 2015 at 1:31:09 PM

Latest Report: Jul 4, 2015 at 12:50 PM


Visibility: 10 mi

Pressure: 30.07 "Hg

Humidity: 100%

Dew point: 67 °F

Location of LexingtonLocation

Historic Weather in Lexington — Graph

°F

Lexington temperature yesterday

Maximum temperature yesterday: 62 °F (at 11:50 PM)
Minimum temperature yesterday: 60 °F (at 3:50 PM)
Average temperature yesterday: 61 °F

Past Weeks' High & Low Weather Summary

 TemperatureHumidityPressure
High81 °F (Jun 23, 3:15 PM)100% (Jun 20, 4:15 PM)30.26 "Hg (Jun 20, 4:15 PM)
Low53 °F (Jun 28, 6:15 AM)26% (Jun 24, 6:15 PM)29.79 "Hg (Jun 28, 3:15 AM)
Average67 °F84%30.07 "Hg
* Reported Jun 19 12:15 PM — Jul 4 12:10 PM, Lexington, Weather by CustomWeather, © 2015

Note: Actual official high and low records may vary slightly from our data, if they occured in-between our weather recording intervals... More about our weather records

Advertising

Lexington weather history for previous 24 hours

 ConditionsComfort  
Time TempWeatherWind HumidityBarometerVisibility
12:10 PM
Sat, Jul 4
67 °FLow clouds.12 mph100%30.07 "Hg10 mi
11:50 AM66 °FLow clouds.12 mph100%30.07 "Hg10 mi
11:30 AM65 °FMostly cloudy.10 mph100%30.06 "Hg10 mi
11:10 AM64 °FMostly cloudy.12 mph100%30.05 "Hg10 mi
10:50 AM65 °FLow clouds.13 mph100%30.04 "Hg7 mi
10:30 AM64 °FFog.12 mph100%30.04 "Hg1 mi
10:10 AM64 °FFog.10 mph100%30.04 "Hg0 mi
9:50 AM64 °FFog.13 mph100%30.04 "Hg0 mi
9:30 AM64 °FFog.10 mph100%30.04 "Hg0 mi
9:10 AM63 °FDrizzle. Low clouds.12 mph100%30.04 "Hg0 mi
8:50 AM63 °FDrizzle. Low clouds.12 mph100%30.03 "Hg0 mi
8:30 AM63 °FDrizzle. Low clouds.12 mph100%30.03 "Hg0 mi
8:10 AM63 °FLight rain. Low clouds.10 mph100%30.02 "Hg0 mi
7:50 AM63 °FDrizzle. Low clouds.12 mph100%30.02 "Hg0 mi
7:10 AM63 °FDrizzle. Low clouds.10 mph100%30.01 "Hg0 mi
6:50 AM63 °FDrizzle. Low clouds.8 mph100%30.00 "Hg0 mi
6:30 AM63 °FDrizzle. Low clouds.9 mph100%30.01 "Hg0 mi
6:10 AM63 °FLight rain. Low clouds.9 mph100%30.01 "Hg0 mi
5:50 AM63 °FFog.8 mph100%30.00 "Hg0 mi
5:30 AM63 °FFog.7 mph100%30.00 "Hg1 mi
5:10 AM63 °FFog.7 mph100%30.00 "Hg4 mi
4:50 AM63 °FFog.5 mph100%29.99 "Hg1 mi
4:30 AM63 °FFog.6 mph100%29.99 "Hg0 mi
4:10 AM63 °FFog.3 mph100%29.99 "Hg2 mi
3:50 AM63 °FFog.5 mph100%30.00 "Hg1 mi
3:30 AM63 °FFog.5 mph100%29.99 "Hg3 mi
3:10 AM63 °FFog.6 mph100%30.00 "Hg1 mi
2:50 AM63 °FDrizzle. Low clouds.5 mph100%30.00 "Hg0 mi
2:30 AM63 °FDrizzle. Low clouds.3 mph100%30.00 "Hg0 mi
2:10 AM63 °FDrizzle. Low clouds.6 mph100%30.00 "Hg0 mi
1:50 AM63 °FDrizzle. Low clouds.3 mph100%30.00 "Hg0 mi
1:30 AM63 °FDrizzle. Low clouds.3 mph100%30.01 "Hg0 mi
1:10 AM63 °FDrizzle. Low clouds.6 mph100%30.02 "Hg0 mi
12:50 AM63 °FDrizzle. Low clouds.5 mph100%30.02 "Hg0 mi
12:10 AM62 °FDrizzle. Low clouds.3 mph100%30.03 "Hg0 mi
11:50 PM
Fri, Jul 3
62 °FDrizzle. Low clouds.6 mph100%30.02 "Hg0 mi
11:30 PM62 °FDrizzle. Low clouds.5 mph100%30.03 "Hg0 mi
11:10 PM62 °FDrizzle. Low clouds.5 mph100%30.03 "Hg0 mi
10:50 PM62 °FDrizzle. Low clouds.No wind100%30.03 "Hg0 mi
10:10 PM62 °FDrizzle. Low clouds.6 mph100%30.02 "Hg0 mi
9:50 PM62 °FDrizzle. Low clouds.6 mph100%30.02 "Hg0 mi
9:30 PM62 °FDrizzle. Low clouds.5 mph100%30.02 "Hg0 mi
9:10 PM62 °FRain. Low clouds.6 mph100%30.02 "Hg0 mi
8:50 PM62 °FDrizzle. Low clouds.3 mph100%30.02 "Hg0 mi
8:30 PM62 °FDrizzle. Low clouds.5 mph100%30.02 "Hg0 mi
8:10 PM62 °FDrizzle. Low clouds.6 mph100%30.01 "Hg0 mi
7:50 PM62 °FHeavy rain. Low clouds.No wind100%30.01 "Hg0 mi
7:30 PM62 °FDrizzle. Low clouds.5 mph100%30.01 "Hg0 mi
7:10 PM62 °FRain. Low clouds.5 mph100%30.02 "Hg0 mi
6:50 PM61 °FDrizzle. Low clouds.6 mph100%30.02 "Hg0 mi
6:30 PM61 °FLight rain. Low clouds.5 mph100%30.01 "Hg0 mi
6:10 PM62 °FDrizzle. Low clouds.5 mph100%30.02 "Hg0 mi
5:50 PM62 °FDrizzle. Low clouds.5 mph100%30.03 "Hg0 mi
5:30 PM61 °FDrizzle. Low clouds.5 mph100%30.03 "Hg0 mi
5:10 PM61 °FLight rain. Low clouds.5 mph100%30.03 "Hg0 mi
4:50 PM61 °FDrizzle. Low clouds.6 mph100%30.03 "Hg0 mi
4:30 PM61 °FFog.5 mph100%30.03 "Hg0 mi
4:10 PM60 °FDrizzle. Low clouds.7 mph100%30.04 "Hg0 mi
3:50 PM60 °FLight rain. Low clouds.7 mph100%30.04 "Hg0 mi
3:30 PM60 °FDrizzle. Low clouds.8 mph100%30.04 "Hg0 mi
3:10 PM60 °FDrizzle. Low clouds.6 mph100%30.04 "Hg0 mi
2:50 PM60 °FDrizzle. Low clouds.No wind100%30.05 "Hg0 mi
2:10 PM60 °FHeavy rain. Low clouds.5 mph100%30.06 "Hg0 mi
1:50 PM61 °FDrizzle. Low clouds.8 mph100%30.06 "Hg0 mi
1:30 PM61 °FRain. Low clouds.7 mph100%30.07 "Hg0 mi
1:10 PM61 °FDrizzle. Low clouds.7 mph100%30.07 "Hg0 mi
Weather by CustomWeather, © 2015

See weather overviewHow to use our weather pages